Tracking 35274 objects as of 11-Sep-2026
HD Live streaming from Space Station
objects crossing your sky now

COSMOS 1186 DEB


COSMOS 1186 DEB is no longer on orbit


NORAD ID: 12483
Int'l Code: 1980-047U
Launch date: June 6, 1980
Source: Commonwealth of Independent States (former USSR) (CIS)
Launch site: PLESETSK MISSILE AND SPACE COMPLEX (PKMTR)
Decay date: 1981-06-22

Note: This is SATELLITE DEBRIS
Your satellite tracking list
Your tracking list is empty




NASA's NSSDC Master Catalog

Two Line Element Set (TLE):
1 12483U 80047  U 81156.28582257  .01703438 +00000-0 +15799-1 0  9995
2 12483 074.0678 010.3452 0029753 207.9030 152.0599 15.66731807055739
Source of the keplerian elements: AFSPC